Torna al catalogo

THORAD DELTA 1 DEB

AttivoSSO
NORAD 14881·DEBRIS·🇺🇸 United States

Lanciato Nov 15, 1974 da Vandenberg Space Force Base

Loading…

Prossimi Passaggi (prossime 24 ore)

TLE

AggiornatoSource: Space-Track

Epoca: Sep 14, 2026, 19:50 UTC

1 14881U 74089EU  26257.82688062 -.00000011  00000-0  23302-3 0  9998
2 14881 101.7891 204.1485 0065864 167.7396 218.5769 12.42220294 51601

Traccia THORAD DELTA 1 DEB in tempo reale con AllMySat

Download on the App Store